Charlotte, NC

10:28 AM EST on December 14, 2017 (GMT -0500)
Charlotte-Douglas International

Weather History for KCLT - May, 2014

Change the Weather History Date:

Saturday, May 17, 2014

  Actual Average Record
Temperature  
Mean Temperature 57 °F 68 °F  
Max Temperature 71 °F 79 °F 93 °F (1896)
Min Temperature 43 °F 56 °F 43 °F (1973)
Degree Days  
Heating Degree Days 8 2  
Month to date heating degree days 24 41  
Since 1 July heating degree days 3386 3373  
Cooling Degree Days 0 4  
Month to date cooling degree days 85 48  
Year to date cooling degree days 124 85  
Growing Degree Days 7 (Base 50)    
Moisture  
Dew Point 42 °F    
Average Humidity 64    
Maximum Humidity 92    
Minimum Humidity 35    
Precipitation  
Precipitation 0.00 in 0.09 in 1.09 in (1963)
Month to date precipitation 2.70 1.67  
Year to date precipitation 21.44 15.45  
Snow  
Snow 0.00 in 0.00 in 0.00 in ()
Month to date snowfall T 0.0  
Since 1 July snowfall 9.3 4.3  
Snow Depth 0.00 in    
Sea Level Pressure  
Sea Level Pressure 30.15 in    
Wind  
Wind Speed 4 mph (WSW)    
Max Wind Speed 13 mph    
Max Gust Speed 20 mph    
Visibility 10 miles    
Events      
T = Trace of Precipitation, MM = Missing Value Source: NWS Daily Summary

Daily Weather History Graph

Daily Weather History Graph

Search for Another Location

Airport or City:

Trip Planner

Search our weather history database for the weather conditions in past years. The results will help you decide how hot, cold, wet, or windy it might be!

Date:

Astronomy

May. 17, 2014 Rise Set
Actual Time 6:18 AM EDT 8:22 PM EDT
Civil Twilight 5:49 AM EDT 8:50 PM EDT
Nautical Twilight 5:15 AM EDT 9:25 PM EDT
Astronomical Twilight 4:38 AM EDT 10:02 PM EDT
Moon 11:22 PM EDT (5/17) 8:59 AM EDT (5/17)
Length of Visible Light 15h 00m
Length of Day
14h 04m
Waning Gibbous, 89% of the Moon is Illuminated
May 17
Waning Gibbous
May 21
Last Quarter
May 28
New
Jun 5
First Quarter
Jun 13
Full

Hourly Weather History & Observations

Time (EDT) Temp. Windchill Dew Point Humidity Pressure Visibility Wind Dir Wind Speed Gust Speed Precip Events Conditions
12:52 AM 48.9 °F - 41.0 °F 74% 30.11 in 10.0 mi Calm Calm - N/A   Clear
1:52 AM 48.0 °F - 39.0 °F 71% 30.11 in 10.0 mi WNW 3.5 mph - N/A   Clear
2:52 AM 48.0 °F - 41.0 °F 77% 30.11 in 10.0 mi Calm Calm - N/A   Clear
3:52 AM 46.0 °F 43.9 °F 42.1 °F 86% 30.12 in 10.0 mi West 4.6 mph - N/A   Clear
4:52 AM 45.0 °F - 41.0 °F 86% 30.14 in 10.0 mi Calm Calm - N/A   Clear
5:52 AM 46.0 °F - 42.1 °F 86% 30.16 in 10.0 mi Calm Calm - N/A   Scattered Clouds
6:52 AM 45.0 °F - 42.1 °F 90% 30.18 in 10.0 mi Calm Calm - N/A   Partly Cloudy
7:52 AM 52.0 °F - 44.1 °F 74% 30.18 in 10.0 mi WNW 3.5 mph - N/A   Partly Cloudy
8:52 AM 57.0 °F - 43.0 °F 59% 30.18 in 10.0 mi Calm Calm - N/A   Partly Cloudy
9:52 AM 61.0 °F - 39.0 °F 44% 30.20 in 10.0 mi SW 9.2 mph - N/A   Partly Cloudy
10:52 AM 63.0 °F - 39.0 °F 41% 30.19 in 10.0 mi SW 5.8 mph - N/A   Partly Cloudy
11:52 AM 66.0 °F - 39.0 °F 37% 30.18 in 10.0 mi West 6.9 mph 16.1 mph N/A   Scattered Clouds
12:52 PM 68.0 °F - 39.9 °F 36% 30.16 in 10.0 mi Variable 6.9 mph - N/A   Scattered Clouds
1:52 PM 68.0 °F - 39.0 °F 35% 30.16 in 10.0 mi WSW 6.9 mph - N/A   Scattered Clouds
2:52 PM 70.0 °F - 42.1 °F 36% 30.16 in 10.0 mi SW 5.8 mph - N/A   Mostly Cloudy
3:52 PM 69.1 °F - 42.1 °F 38% 30.14 in 10.0 mi WSW 8.1 mph - N/A   Overcast
4:52 PM 66.9 °F - 43.0 °F 42% 30.13 in 10.0 mi SW 10.4 mph 17.3 mph N/A   Overcast
5:52 PM 68.0 °F - 44.1 °F 42% 30.14 in 10.0 mi WSW 9.2 mph - N/A   Mostly Cloudy
6:52 PM 64.0 °F - 43.0 °F 46% 30.13 in 10.0 mi WSW 6.9 mph - 0.00 in   Scattered Clouds
7:52 PM 62.1 °F - 44.1 °F 52% 30.13 in 10.0 mi SW 6.9 mph - N/A   Partly Cloudy
8:52 PM 59.0 °F - 44.1 °F 58% 30.14 in 10.0 mi Calm Calm - N/A   Scattered Clouds
9:52 PM 57.0 °F - 45.0 °F 64% 30.16 in 10.0 mi SW 3.5 mph - N/A   Mostly Cloudy
10:52 PM 55.9 °F - 45.0 °F 67% 30.17 in 10.0 mi SW 3.5 mph - N/A   Scattered Clouds
11:52 PM 55.0 °F - 45.0 °F 69% 30.18 in 10.0 mi West 3.5 mph - N/A   Scattered Clouds